TimeCDT,TemperatureF,Dew PointF,Humidity,Sea Level PressureIn,VisibilityMPH,Wind Direction,Wind SpeedMPH,Gust SpeedMPH,PrecipitationIn,Events,Conditions,WindDirDegrees,DateUTC
12:52 AM,71.1,66.9,87,30.16,10.0,SSE,15.0,-,N/A,,Clear,160,2013-05-15 05:52:00
1:52 AM,71.1,66.9,87,30.14,10.0,South,16.1,-,N/A,,Clear,170,2013-05-15 06:52:00
2:52 AM,71.1,66.9,87,30.13,10.0,South,16.1,-,N/A,,Clear,170,2013-05-15 07:52:00
3:52 AM,71.1,66.9,87,30.12,10.0,South,13.8,-,N/A,,Clear,170,2013-05-15 08:52:00
4:52 AM,71.1,66.9,87,30.11,10.0,SSE,13.8,-,N/A,,Clear,160,2013-05-15 09:52:00
5:52 AM,70.0,66.9,90,30.10,10.0,SSE,12.7,-,N/A,,Clear,160,2013-05-15 10:52:00
6:52 AM,71.1,68.0,90,30.13,10.0,South,8.1,-,N/A,,Partly Cloudy,170,2013-05-15 11:52:00
7:52 AM,72.0,69.1,91,30.13,10.0,South,13.8,-,N/A,,Scattered Clouds,170,2013-05-15 12:52:00
8:52 AM,72.0,69.1,91,30.14,10.0,South,12.7,-,N/A,,Mostly Cloudy,170,2013-05-15 13:52:00
9:52 AM,72.0,69.1,91,30.14,10.0,South,15.0,-,0.00,Rain,Light Rain,170,2013-05-15 14:52:00
10:52 AM,71.1,70.0,96,30.14,7.0,SSE,12.7,-,0.01,Rain,Light Rain,160,2013-05-15 15:52:00
11:52 AM,71.1,71.1,100,30.09,10.0,SE,15.0,-,0.02,Rain,Light Rain,130,2013-05-15 16:52:00
12:52 PM,71.1,70.0,96,30.08,10.0,SE,15.0,-,0.00,,Mostly Cloudy,130,2013-05-15 17:52:00
1:52 PM,75.0,71.1,87,30.06,10.0,SE,17.3,-,N/A,,Partly Cloudy,130,2013-05-15 18:52:00
2:52 PM,75.0,70.0,84,30.05,10.0,SSE,18.4,-,N/A,,Mostly Cloudy,150,2013-05-15 19:52:00
3:52 PM,75.9,70.0,82,30.03,10.0,SSE,18.4,-,N/A,,Mostly Cloudy,160,2013-05-15 20:52:00
4:52 PM,75.0,70.0,84,30.01,10.0,SSE,17.3,-,N/A,,Mostly Cloudy,160,2013-05-15 21:52:00
5:43 PM,75.2,69.8,83,29.99,10.0,South,16.1,-,N/A,,Scattered Clouds,170,2013-05-15 22:43:00
5:52 PM,75.0,69.1,82,29.99,10.0,SSE,17.3,-,N/A,,Scattered Clouds,160,2013-05-15 22:52:00
6:52 PM,73.0,69.1,87,29.99,10.0,South,13.8,-,N/A,,Unknown,170,2013-05-15 23:52:00
7:25 PM,71.6,69.8,94,29.99,10.0,South,13.8,-,N/A,,Overcast,170,2013-05-16 00:25:00
7:52 PM,72.0,69.1,91,29.99,10.0,South,11.5,-,N/A,,Overcast,170,2013-05-16 00:52:00
8:00 PM,71.6,69.8,94,29.98,10.0,SSE,13.8,-,N/A,,Overcast,160,2013-05-16 01:00:00
8:19 PM,71.6,69.8,94,29.98,10.0,SSE,15.0,-,N/A,,Mostly Cloudy,160,2013-05-16 01:19:00
8:52 PM,71.1,69.1,93,29.98,10.0,SSE,15.0,-,N/A,,Mostly Cloudy,160,2013-05-16 01:52:00
9:23 PM,71.6,69.8,94,29.97,10.0,SSE,15.0,-,N/A,,Overcast,160,2013-05-16 02:23:00
9:52 PM,71.1,69.1,93,29.97,10.0,SSE,17.3,-,N/A,,Mostly Cloudy,150,2013-05-16 02:52:00
10:24 PM,71.6,69.8,94,29.98,10.0,SSE,17.3,-,N/A,,Overcast,150,2013-05-16 03:24:00
10:48 PM,71.6,69.8,94,29.98,10.0,SSE,17.3,-,N/A,,Overcast,160,2013-05-16 03:48:00
10:52 PM,71.1,69.1,93,29.98,10.0,SSE,17.3,-,N/A,,Overcast,160,2013-05-16 03:52:00
11:52 PM,71.1,70.0,96,29.96,10.0,South,19.6,-,N/A,,Mostly Cloudy,170,2013-05-16 04:52:00